Location: Unspecified
(41.1637°N, 24.2901°E)
Time: 14:10:00
(UTC+01:00)

ARIANE 6 FM1 Upper Stage - Pass Details

Date: 27 January 2026
Orbit: 522 x 609 km, 62.0° (Epoch: 11 February)

Event Time Altitude Azimuth Distance (km) Brightness Sun altitude
Rises 18:34:53 0° 275° (W) 2,695 7.6 -22.9°
Reaches altitude 10° 18:39:00 10° 316° (NW) 1,787 5.7 -23.7°
Maximum altitude 18:39:50 11° 328° (NNW) 1,751 5.5 -23.9°
Drops below altitude 10° 18:40:39 10° 340° (NNW) 1,781 5.4 -24.0°
Enters shadow 18:41:38 - 353° (N) 1,898 5.4 -24.2°
